Temp
1 1 2 1 0 -0 -1 -0 0 1 1 2 1 1 1 2 2 2 2 2 2 2 2 2 2 2 2
1 1 0 1 -0 -1 -0 -0 0 1 1 1 1 1 2 2 2 2 1 2 2 2 1 1 1 1 1
1 0 0 0 -0 -1 -1 -1 0 0 0 1 1 1 2 2 2 1 1 1 1 1 1 1 1 1 1
1 -0 -0 -0 -1 -1 -2 -1 -0 0 0 1 1 1 1 1 1 1 1 1 1 1 1 0 0 0 -0
0 -0 -1 -1 -1 -2 -1 -1 -0 -0 0 1 1 1 1 1 1 0 1 1 0 0 -0 -0 -0 -1 -1
-1 -1 -1 -2 -2 -2 -1 -1 -0 -0 0 0 0 1 0 0 0 -0 0 -0 -0 -1 -1 -2 -2 -2 -2
-1 -2 -1 -3 -2 -3 -2 -1 -1 -1 -0 -0 -0 -0 -0 -0 -0 -1 -1 -1 -1 -1 -2 -3 -4 -3 -3
-1 -2 -1 -2 -2 -3 -2 -1 -1 -1 -1 -1 -1 -1 -1 -1 -1 -1 -1 -2 -2 -3 -3 -4 -4 -4 -3
-2 -2 -2 -2 -3 -3 -3 -2 -1 -1 -1 -1 -1 -1 -1 -1 -1 -2 -2 -2 -3 -3 -4 -6 -5 -5 -5
-3 -3 -3 -3 -3 -3 -2 -2 -2 -2 -2 -2 -2 -2 -2 -2 -2 -2 -3 -3 -3 -4 -4 -5 -5 -5 -5
-3 -4 -4 -4 -4 -3 -3 -2 -2 -2 -2 -2 -2 -2 -2 -2 -3 -3 -3 -3 -3 -4 -5 -5 -5 -5 -5
-3 -4 -4 -4 -4 -4 -4 -3 -3 -3 -3 -2 -3 -3 -3 -3 -3 -3 -3 -4 -4 -4 -4 -4 -5 -5 -5
-4 -4 -4 -4 -4 -4 -4 -4 -3 -3 -3 -3 -3 -3 -4 -4 -3 -4 -4 -4 -4 -4 -4 -4 -4 -4 -5
-4 -4 -4 -4 -5 -4 -4 -4 -4 -4 -3 -3 -3 -4 -4 -4 -4 -4 -4 -5 -5 -4 -4 -4 -5 -5 -5
-4 -4 -4 -4 -5 -4 -4 -4 -4 -4 -4 -4 -4 -4 -4 -4 -4 -5 -5 -5 -5 -5 -5 -5 -6 -6 -6
-4 -5 -5 -5 -5 -5 -5 -5 -5 -5 -5 -5 -5 -5 -5 -5 -5 -5 -5 -5 -5 -6 -6 -6 -6 -6 -7
-5 -5 -5 -5 -5 -5 -5 -5 -5 -5 -5 -5 -5 -5 -5 -5 -5 -6 -6 -6 -6 -6 -7 -7 -7 -7 -7
Height
3105 3105 3103 3102 3101 3102 3103 3102 3101 3100 3099 3096 3095 3093 3091 3089 3089 3087 3084 3083 3080 3079 3077 3074 3074 3073 3071
3096 3093 3093 3092 3091 3094 3095 3095 3094 3093 3091 3088 3087 3086 3084 3083 3079 3079 3078 3075 3074 3074 3071 3071 3069 3068 3067
3084 3083 3083 3084 3085 3086 3087 3087 3087 3085 3083 3082 3080 3079 3078 3077 3073 3073 3071 3070 3068 3068 3067 3065 3065 3062 3062
3075 3072 3074 3075 3077 3078 3078 3079 3078 3077 3077 3075 3074 3072 3071 3069 3067 3067 3066 3064 3063 3063 3062 3062 3061 3058 3056
3065 3064 3065 3066 3067 3070 3072 3072 3071 3070 3070 3067 3066 3065 3063 3062 3063 3061 3059 3058 3057 3058 3057 3055 3056 3056 3053
3056 3056 3057 3057 3059 3061 3065 3065 3064 3064 3062 3060 3060 3058 3056 3055 3055 3055 3054 3053 3053 3053 3051 3053 3051 3051 3052
3045 3046 3046 3049 3052 3053 3055 3057 3056 3056 3055 3054 3052 3051 3049 3048 3048 3047 3048 3049 3047 3047 3047 3049 3050 3050 3050
3035 3037 3037 3039 3041 3044 3047 3048 3048 3049 3049 3047 3045 3044 3043 3041 3041 3040 3041 3041 3044 3042 3044 3045 3046 3047 3047
3027 3028 3030 3031 3032 3035 3040 3041 3041 3041 3042 3040 3038 3036 3037 3036 3035 3035 3036 3037 3038 3039 3041 3043 3044 3046 3047
3020 3019 3021 3023 3026 3029 3032 3032 3032 3033 3034 3033 3032 3031 3030 3030 3029 3030 3031 3032 3033 3035 3037 3040 3043 3042 3046
3013 3014 3015 3017 3020 3022 3024 3025 3024 3024 3025 3025 3024 3025 3024 3025 3025 3024 3025 3027 3029 3031 3033 3035 3039 3040 3042
3006 3005 3008 3012 3013 3015 3016 3016 3017 3017 3016 3017 3017 3018 3018 3019 3020 3020 3020 3023 3027 3028 3029 3031 3034 3037 3038
2997 2997 2998 3000 3002 3005 3006 3008 3008 3008 3008 3009 3010 3011 3012 3013 3015 3016 3016 3018 3020 3024 3027 3028 3028 3032 3034
2986 2985 2986 2989 2991 2995 2997 2998 2999 3001 3001 3002 3002 3004 3005 3008 3010 3011 3013 3015 3016 3019 3022 3025 3026 3028 3030
2971 2976 2976 2977 2981 2984 2987 2989 2990 2992 2993 2994 2995 2997 2998 3001 3004 3005 3008 3010 3011 3014 3017 3020 3022 3024 3026
2963 2965 2968 2969 2972 2975 2977 2978 2981 2983 2986 2987 2988 2991 2993 2995 2998 3000 3002 3006 3008 3010 3013 3016 3018 3020 3021
2951 2955 2958 2960 2963 2966 2968 2969 2972 2975 2977 2980 2982 2985 2987 2988 2993 2995 2998 3001 3003 3006 3009 3011 3013 3015 3016
Wind_Speed
44 45 37 34 29 22 23 23 23 24 25 23 21 21 21 22 24 25 25 26 22 23 23 23 22 21 19
47 41 42 36 28 19 21 22 24 25 23 20 21 21 22 24 23 25 25 25 22 22 23 24 21 18 17
33 36 33 27 18 21 27 20 26 23 22 21 21 22 24 25 24 24 24 24 22 21 23 22 20 17 16
39 33 28 27 23 27 20 23 24 23 22 22 23 24 26 24 23 23 23 22 21 22 21 19 17 15 11
35 34 29 24 21 18 22 25 24 22 22 22 24 25 25 23 23 21 22 21 20 21 20 18 14 10 6
33 32 27 23 21 22 23 24 23 23 23 24 25 25 24 23 22 21 20 19 19 19 19 15 11 9 6
37 23 30 21 26 21 21 23 23 23 24 24 24 24 23 23 21 19 18 18 18 17 16 14 10 4 4
34 33 32 29 25 18 21 24 23 22 23 23 23 24 23 22 20 18 16 16 16 15 15 13 11 8 2
38 28 25 21 17 18 23 24 22 23 23 22 23 23 23 20 18 16 15 15 14 15 14 11 8 10 9
27 25 20 17 17 19 22 22 23 24 23 23 23 22 21 18 16 15 14 13 15 15 15 14 21 11 13
38 16 16 18 22 22 23 26 28 26 23 23 22 21 19 17 15 14 13 13 15 16 17 21 24 22 19
24 18 18 22 25 27 28 29 29 26 24 22 21 20 18 16 14 13 14 14 14 16 17 18 20 22 21
29 32 26 24 25 26 27 28 27 24 23 22 21 18 17 15 14 14 14 14 15 16 17 17 17 17 16
40 37 29 26 26 28 28 28 26 25 24 21 20 18 16 16 15 14 15 15 15 17 18 18 16 14 13
31 28 27 26 28 30 28 31 25 24 23 21 21 19 17 17 16 15 14 16 17 18 18 17 15 13 13
41 30 31 29 31 27 29 28 26 24 23 22 20 18 18 17 16 15 15 17 18 19 18 16 15 14 14
31 28 34 28 29 28 29 26 27 22 23 21 20 19 18 16 16 16 17 18 19 20 19 16 15 15 16
Wind_Direction
292 290 263 269 259 256 261 269 279 284 283 288 289 286 288 294 298 304 303 297 304 302 303 300 302 304 298
290 264 274 261 247 253 259 272 279 277 278 280 284 289 294 294 299 300 296 296 300 301 302 300 302 302 297
264 274 248 251 242 248 262 267 276 281 284 285 286 289 292 296 298 297 295 296 298 300 296 298 301 299 292
265 246 242 241 239 253 258 272 277 280 280 282 287 293 294 296 297 295 294 294 294 293 292 295 294 290 287
254 257 242 245 247 261 265 272 275 275 277 283 289 291 292 296 295 291 287 287 288 286 288 293 295 268 266
251 247 250 234 245 251 261 267 268 271 279 283 286 290 293 292 290 288 286 283 279 279 282 288 283 291 270
263 253 238 230 240 247 258 262 266 272 276 282 287 289 291 288 285 284 282 276 269 267 271 281 279 264 294
240 257 239 243 237 247 261 264 267 273 277 283 286 288 287 285 284 281 272 264 257 255 260 257 256 254 277
259 252 248 243 244 251 259 264 269 272 275 280 283 284 283 283 279 274 267 257 249 247 245 228 241 196 204
235 231 235 242 266 267 266 265 269 272 277 278 279 280 279 277 271 266 259 246 238 233 228 202 195 218 206
267 233 232 248 257 260 262 266 267 270 273 275 277 276 271 268 261 259 253 238 230 225 221 211 213 235 232
258 233 236 248 252 254 258 260 263 266 269 271 270 267 264 256 253 248 240 235 227 222 217 219 223 231 234
269 246 235 241 251 256 257 257 261 265 265 266 264 259 254 250 246 240 236 230 221 216 217 218 220 224 228
257 234 246 247 249 256 256 255 259 262 260 259 256 251 244 241 238 235 230 226 219 215 214 213 213 213 221
250 256 244 246 251 248 256 253 251 255 257 254 247 241 236 236 235 230 226 223 220 216 207 203 206 213 222
260 257 269 264 250 249 255 244 246 245 249 243 238 234 233 234 233 228 222 219 217 210 206 207 217 229 239
265 260 264 248 246 249 256 256 241 238 237 233 230 231 233 231 229 226 222 217 211 207 209 214 227 244 253